COSMOS 1275 DEB

Satellite information

Favourite Embed

Satellite Type and Status

DEBRISIN ORBIT

Key statistics

Satellite COSMOS 1275 DEB at a glance.

Uptime

16164

Days in orbit

Revolutions

≈ 14.4

Per day

Orbit

LEO

Low Earth Orbit

Inclination

82.9

Latest

Satellite identification and parameters

Extended collection of information and parameters for COSMOS 1275 DEB.

Object identification

Identified? True

Debris? True

Object name: COSMOS 1275 DEB

International designator: 1981-053PL

Object number (NORAD): 42100

Object ID (CCSDS): 42100

Country: COMMONWEALTH OF INDEPENDENT STATES (CIS)

Current information (Y/N): Y

RCS size: SMALL

Orbital parameters

Period: 100.093 minutes

Inclination: 82.8599 deg

SMA: 7141.045 km

Apoapsis: 777.514 km

Periapsis: 748.306 km

RAAN: 112.6303 deg

Eccentricy: 0.00204514

Argument of periapsis: 296.3851 deg

Mean anomaly: 63.524 deg

Mean motion: 14.38666424 rev/day

Mean motion (dot): 0.00007665 rev/day2

B* drag term: 0.0024887246 1/REarth

Two-line elements (TLE)

Creation date: Sept. 4, 2025, 4:29 a.m.

Reference frame: TEME

Reference center: EARTH

Epoch: Sept. 3, 2025, 8:58 p.m. UTC

TLE line 0: 0 COSMOS 1275 DEB

TLE line 1: 1 42100U 81053PL 25246.87371960 .00007665 00000-0 24887-2 0 9999

TLE line 2: 2 42100 82.8599 112.6303 0020451 296.3851 63.5240 14.38666424611598

Live tracking on map

Real-time ground track for satellite COSMOS 1275 DEB.

In-orbit conjunctions

A list of the most updated potential collisions computed for object COSMOS 1275 DEB.

Target Orbit TCA Probability of collision Miss distance Type
DELTA 1 DEB SSO 2025-02-17 08:20:34 0.0001145014 183.0 (m) DEBRIS
THOR BURNER 2 R/B SSO 2024-10-05 23:20:35 0.0001164382 123.0 (m) ROCKET BODY

Associated space launch

Navigation satellite providing location information for the Tsiklon-B navigation system

COSMOS 1275 DEB was lifted into orbit during the mission ‘Kosmos-3M | Parus 27’, on board a Kosmos-3M space rocket.

The launch took place on June 4, 1981, 3:41 p.m. from 132/2.

For more information about the launch, click the button.

Launch to space Kosmos-3M | Parus 27
Kosmos-3M | Parus 27

Agency: N/A

Status: Launch Successful

Launch date: June 4, 1981, 3:41 p.m. UTC

Rocket: Kosmos-3M

Launch pad: 132/2

Location: Plesetsk Cosmodrome, Russian Federation

...

Latest news about this satellite

There are no fresh news available about this satellite. Check back as we update our databases every day.


Newsletter sign-up

Weekly statistics, charts and insights to help you stay on top of the space industry.